Location: *
(45.5667°S, 177.5167°W)
Time: 08:35:13
(UTC+00:00)

GEOS 3 Rocket - Visible Passes

Search period start: 06 October 2022 00:00
Search period end: 16 October 2022 00:00
Orbit: 783 x 835 km, 115.0° (Epoch: 05 October)

Date Brightness Start Highest point End Pass type
(mag) Time Alt. Az. Time Alt. Az. Time Alt. Az.
06 Oct 4.5 07:51:02 16° N 07:55:03 45° WNW 08:00:09 10° SW visible
07 Oct 3.8 07:26:33 15° NNE 07:31:02 76° NW 07:36:22 10° SW visible
07 Oct 6.0 09:07:39 11° NW 09:09:43 14° WNW 09:12:23 10° W visible
08 Oct 3.7 07:02:02 11° NE 07:07:07 69° SE 07:12:24 10° SW visible
08 Oct 5.4 08:43:09 19° NNW 08:45:27 25° WNW 08:49:46 10° WSW visible
09 Oct 4.2 06:38:17 10° ENE 06:43:19 44° SE 06:48:20 10° SSW visible
09 Oct 4.6 08:18:37 24° N 08:21:19 42° WNW 08:26:22 10° SW visible
10 Oct 3.8 07:54:03 24° NNE 07:57:18 70° NW 08:02:37 10° SW visible
10 Oct 6.0 09:35:10 12° WNW 09:36:01 13° WNW 09:38:15 10° W visible
11 Oct 3.7 07:29:29 19° NE 07:33:22 74° SE 07:38:40 10° SW visible
11 Oct 5.3 09:10:35 21° NW 09:11:45 23° WNW 09:15:54 10° WSW visible
12 Oct 4.2 07:04:53 12° ENE 07:09:32 47° SE 07:14:36 10° SSW visible
12 Oct 4.6 08:45:59 31° NNW 08:47:36 38° WNW 08:52:33 10° SW visible
13 Oct 4.7 06:41:09 10° E 06:45:49 32° SE 06:50:26 10° SSW visible
13 Oct 3.9 08:21:22 35° NNE 08:23:33 65° NW 08:28:51 10° SW visible
13 Oct 6.1 10:02:28 11° WNW 10:02:28 11° WNW 10:03:57 10° W visible
14 Oct 3.6 07:56:44 28° NE 07:59:36 79° SE 08:04:55 10° SW visible
14 Oct 5.4 09:37:50 21° WNW 09:38:03 21° WNW 09:41:59 10° WSW visible
15 Oct 4.1 07:32:05 19° ENE 07:35:46 50° SE 07:40:52 10° SSW visible
15 Oct 4.6 09:13:11 34° NW 09:13:52 35° WNW 09:18:44 10° SW visible
